VLG770Q LEBB-GCXO

Flight info

Callsign VLG770Q
Flight time 2h 46m
Altitude 35000
Route AMTOS L14 ADINO/N0391F230 L14 ELVAR/N0445F350 DCT BAROK UN873 SAMAR
Aircraft A321/M-SDE3FGHIRWY/LB1

Departure

Time 2026-04-26 07:59
Airport Bilbao Airport (LEBB)

Arrival

Time 2026-04-26 10:46
Airport Tenerife Norte-Ciudad de La Laguna Airport (GCXO)
Time Latitude Longitude Altitude Speed Heading
2026-04-26 07:38 43.30451 -2.90687 153 ft 0 kts 27°
2026-04-26 07:50 43.30448 -2.90690 152 ft 2 kts 26°
2026-04-26 07:51 43.30433 -2.90699 151 ft 2 kts 24°
2026-04-26 07:51 43.30417 -2.90708 149 ft 2 kts 19°
2026-04-26 07:51 43.30402 -2.90715 148 ft 2 kts
2026-04-26 07:51 43.30385 -2.90717 147 ft 2 kts 336°
2026-04-26 07:52 43.30373 -2.90704 146 ft 1 kts 299°
2026-04-26 07:52 43.30370 -2.90699 146 ft 0 kts 297°
2026-04-26 07:53 43.30371 -2.90699 146 ft 1 kts 297°
2026-04-26 07:54 43.30384 -2.90735 146 ft 5 kts 297°
2026-04-26 07:54 43.30399 -2.90774 146 ft 5 kts 297°
2026-04-26 07:54 43.30407 -2.90856 145 ft 13 kts 267°
2026-04-26 07:54 43.30385 -2.90979 140 ft 15 kts 223°
2026-04-26 07:55 43.30310 -2.91082 132 ft 17 kts 272°
2026-04-26 07:55 43.30353 -2.91215 134 ft 14 kts 296°
2026-04-26 07:55 43.30400 -2.91341 134 ft 18 kts 297°
2026-04-26 07:55 43.30459 -2.91501 133 ft 19 kts 295°
2026-04-26 07:56 43.30515 -2.91655 132 ft 18 kts 296°
2026-04-26 07:56 43.30575 -2.91818 125 ft 19 kts 296°
2026-04-26 07:56 43.30633 -2.91979 122 ft 18 kts 296°
2026-04-26 07:56 43.30690 -2.92135 127 ft 18 kts 296°
2026-04-26 07:57 43.30740 -2.92271 127 ft 14 kts 297°
2026-04-26 07:57 43.30783 -2.92386 127 ft 13 kts 297°
2026-04-26 07:57 43.30791 -2.92490 127 ft 10 kts 231°
2026-04-26 07:57 43.30709 -2.92486 127 ft 16 kts 162°
2026-04-26 07:58 43.30613 -2.92421 128 ft 13 kts 130°
2026-04-26 07:58 43.30600 -2.92391 128 ft 0 kts 118°
2026-04-26 07:58 43.30597 -2.92383 129 ft 10 kts 118°
2026-04-26 07:58 43.30443 -2.91966 128 ft 84 kts 117°
2026-04-26 07:59 43.30089 -2.91001 127 ft 140 kts 117°
2026-04-26 07:59 43.29594 -2.89636 230 ft 173 kts 116°
2026-04-26 07:59 43.29086 -2.88226 1016 ft 158 kts 115°
2026-04-26 07:59 43.28605 -2.86924 1655 ft 155 kts 116°
2026-04-26 08:00 43.28089 -2.85527 1892 ft 174 kts 117°
2026-04-26 08:00 43.27507 -2.83955 2030 ft 196 kts 117°
2026-04-26 08:00 43.26858 -2.82195 2178 ft 218 kts 117°
2026-04-26 08:00 43.26137 -2.80234 2359 ft 243 kts 117°
2026-04-26 08:01 43.25349 -2.78091 2835 ft 257 kts 116°
2026-04-26 08:01 43.24532 -2.75878 3563 ft 263 kts 116°
2026-04-26 08:01 43.23597 -2.73709 4274 ft 268 kts 132°
2026-04-26 08:01 43.22046 -2.72293 4979 ft 274 kts 163°
2026-04-26 08:02 43.20154 -2.72174 5665 ft 277 kts 195°
2026-04-26 08:02 43.18465 -2.73407 6364 ft 279 kts 222°
2026-04-26 08:02 43.17062 -2.75266 7082 ft 282 kts 229°
2026-04-26 08:02 43.15807 -2.77337 7778 ft 284 kts 234°
2026-04-26 08:03 43.14703 -2.79589 8485 ft 286 kts 240°
2026-04-26 08:03 43.13776 -2.82009 9181 ft 288 kts 246°
2026-04-26 08:03 43.13037 -2.84571 9880 ft 290 kts 252°
2026-04-26 08:03 43.12501 -2.87245 10531 ft 293 kts 259°
2026-04-26 08:04 43.12182 -2.90008 11151 ft 295 kts 265°
2026-04-26 08:04 43.12081 -2.92864 11495 ft 310 kts 271°
2026-04-26 08:04 43.12247 -2.95897 11631 ft 330 kts 278°
2026-04-26 08:04 43.12722 -2.99063 11856 ft 346 kts 286°
2026-04-26 08:05 43.13513 -3.02199 12374 ft 351 kts 293°
2026-04-26 08:05 43.14261 -3.05397 12952 ft 356 kts 278°
2026-04-26 08:05 43.14119 -3.08778 13533 ft 361 kts 254°
2026-04-26 08:05 43.12975 -3.11836 14097 ft 365 kts 230°
2026-04-26 08:06 43.10988 -3.13990 14609 ft 369 kts 205°
2026-04-26 08:06 43.08566 -3.15059 15132 ft 372 kts 195°
2026-04-26 08:06 43.06127 -3.16394 15667 ft 375 kts 210°
2026-04-26 08:06 43.03930 -3.18252 16227 ft 377 kts 213°
2026-04-26 08:07 43.01744 -3.20255 16783 ft 380 kts 215°
2026-04-26 08:07 42.99579 -3.22349 17326 ft 382 kts 216°
2026-04-26 08:07 42.97408 -3.24462 17862 ft 385 kts 215°
2026-04-26 08:07 42.95205 -3.26570 18390 ft 388 kts 215°
2026-04-26 08:08 42.92977 -3.28672 18858 ft 391 kts 214°
2026-04-26 08:08 42.90724 -3.30770 19295 ft 393 kts 214°
2026-04-26 08:08 42.88455 -3.32865 19761 ft 395 kts 214°
2026-04-26 08:08 42.86167 -3.34969 20201 ft 398 kts 214°
2026-04-26 08:09 42.83869 -3.37082 20642 ft 400 kts 214°
2026-04-26 08:09 42.81557 -3.39209 21067 ft 402 kts 214°
2026-04-26 08:09 42.79232 -3.41352 21528 ft 404 kts 214°
2026-04-26 08:09 42.76899 -3.43504 21956 ft 407 kts 214°
2026-04-26 08:10 42.74552 -3.45669 22386 ft 409 kts 214°
2026-04-26 08:10 42.72186 -3.47846 22814 ft 411 kts 214°
2026-04-26 08:10 42.69809 -3.50032 23226 ft 413 kts 214°
2026-04-26 08:10 42.67423 -3.52227 23646 ft 416 kts 214°
2026-04-26 08:11 42.65025 -3.54435 24010 ft 418 kts 214°
2026-04-26 08:11 42.62615 -3.56650 24351 ft 420 kts 214°
2026-04-26 08:11 42.60189 -3.58876 24695 ft 421 kts 214°
2026-04-26 08:11 42.57753 -3.61108 25030 ft 423 kts 214°
2026-04-26 08:12 42.55337 -3.63315 25357 ft 426 kts 214°
2026-04-26 08:12 42.52879 -3.65561 25686 ft 428 kts 214°
2026-04-26 08:12 42.50403 -3.67822 26004 ft 430 kts 214°
2026-04-26 08:12 42.47921 -3.70086 26305 ft 432 kts 214°
2026-04-26 08:13 42.45419 -3.72370 26620 ft 434 kts 214°
2026-04-26 08:13 42.42910 -3.74659 26930 ft 436 kts 214°
2026-04-26 08:13 42.40384 -3.76961 27236 ft 438 kts 214°
2026-04-26 08:13 42.37849 -3.79268 27557 ft 440 kts 214°
2026-04-26 08:14 42.35300 -3.81581 27843 ft 443 kts 214°
2026-04-26 08:14 42.32736 -3.83903 28137 ft 444 kts 214°
2026-04-26 08:14 42.30161 -3.86231 28436 ft 446 kts 214°
2026-04-26 08:14 42.27578 -3.88566 28719 ft 448 kts 214°
2026-04-26 08:15 42.24980 -3.90916 28992 ft 450 kts 213°
2026-04-26 08:15 42.22370 -3.93276 29255 ft 452 kts 213°
2026-04-26 08:15 42.19747 -3.95641 29514 ft 454 kts 213°
2026-04-26 08:15 42.17114 -3.98012 29769 ft 456 kts 213°
2026-04-26 08:16 42.14466 -4.00393 30027 ft 458 kts 213°
2026-04-26 08:16 42.11810 -4.02783 30285 ft 460 kts 213°
2026-04-26 08:16 42.09177 -4.05152 30505 ft 462 kts 213°
2026-04-26 08:16 42.06504 -4.07556 30783 ft 462 kts 213°
2026-04-26 08:17 42.03833 -4.09957 31121 ft 461 kts 214°
2026-04-26 08:17 42.01300 -4.12614 31437 ft 461 kts 221°
2026-04-26 08:17 41.98890 -4.15448 31739 ft 461 kts 221°
2026-04-26 08:17 41.96475 -4.18288 32062 ft 461 kts 221°
2026-04-26 08:18 41.94876 -4.20165 32265 ft 461 kts 221°
2026-04-26 08:18 41.92462 -4.22995 32587 ft 460 kts 221°
2026-04-26 08:18 41.90049 -4.25815 32888 ft 460 kts 221°
2026-04-26 08:18 41.87635 -4.28631 33210 ft 460 kts 221°
2026-04-26 08:19 41.85218 -4.31448 33516 ft 460 kts 221°
2026-04-26 08:19 41.82802 -4.34265 33814 ft 460 kts 221°
2026-04-26 08:19 41.80518 -4.36925 34099 ft 459 kts 221°
2026-04-26 08:19 41.78104 -4.39738 34362 ft 459 kts 221°
2026-04-26 08:20 41.75691 -4.42542 34622 ft 459 kts 221°
2026-04-26 08:20 41.73281 -4.45337 34907 ft 458 kts 221°
2026-04-26 08:20 41.70876 -4.48121 35128 ft 458 kts 221°
2026-04-26 08:20 41.68474 -4.50900 35187 ft 455 kts 221°
2026-04-26 08:21 41.63713 -4.56417 35192 ft 452 kts 221°
2026-04-26 08:21 41.58965 -4.61907 35191 ft 451 kts 221°
2026-04-26 08:22 41.54211 -4.67388 35196 ft 452 kts 221°
2026-04-26 08:22 41.49450 -4.72863 35186 ft 451 kts 221°
2026-04-26 08:23 41.44689 -4.78321 35183 ft 451 kts 221°
2026-04-26 08:23 41.39934 -4.83775 35182 ft 451 kts 221°
2026-04-26 08:24 41.35172 -4.89214 35180 ft 451 kts 221°
2026-04-26 08:24 41.30406 -4.94640 35176 ft 451 kts 221°
2026-04-26 08:25 41.25639 -5.00066 35173 ft 451 kts 221°
2026-04-26 08:25 41.20868 -5.05489 35175 ft 451 kts 221°
2026-04-26 08:26 41.16097 -5.10899 35174 ft 451 kts 221°
2026-04-26 08:26 41.11316 -5.16305 35176 ft 451 kts 221°
2026-04-26 08:27 41.06532 -5.21705 35182 ft 451 kts 221°
2026-04-26 08:27 41.01749 -5.27087 35182 ft 451 kts 221°
2026-04-26 08:28 40.96958 -5.32465 35186 ft 451 kts 221°
2026-04-26 08:28 40.92168 -5.37841 35185 ft 451 kts 221°
2026-04-26 08:29 40.87412 -5.43173 35184 ft 452 kts 221°
2026-04-26 08:29 40.82617 -5.48538 35183 ft 452 kts 221°
2026-04-26 08:30 40.77817 -5.53896 35180 ft 452 kts 221°
2026-04-26 08:30 40.73013 -5.59243 35181 ft 452 kts 221°
2026-04-26 08:31 40.68208 -5.64575 35177 ft 452 kts 221°
2026-04-26 08:31 40.63398 -5.69910 35176 ft 452 kts 221°
2026-04-26 08:32 40.58592 -5.75236 35175 ft 452 kts 221°
2026-04-26 08:32 40.53778 -5.80552 35173 ft 452 kts 221°
2026-04-26 08:33 40.48965 -5.85849 35169 ft 452 kts 221°
2026-04-26 08:33 40.44143 -5.91160 35170 ft 452 kts 221°
2026-04-26 08:34 40.39328 -5.96462 35167 ft 452 kts 221°
2026-04-26 08:34 40.34501 -6.01755 35166 ft 452 kts 221°
2026-04-26 08:35 40.29669 -6.07030 35166 ft 452 kts 221°
2026-04-26 08:35 40.24839 -6.12300 35160 ft 452 kts 221°
2026-04-26 08:36 40.20014 -6.17560 35151 ft 451 kts 221°
2026-04-26 08:36 40.15195 -6.22802 35149 ft 451 kts 221°
2026-04-26 08:37 40.10410 -6.28014 35145 ft 450 kts 221°
2026-04-26 08:37 40.05595 -6.33237 35142 ft 450 kts 221°
2026-04-26 08:38 40.00774 -6.38443 35138 ft 450 kts 221°
2026-04-26 08:38 39.95951 -6.43647 35140 ft 450 kts 221°
2026-04-26 08:39 39.91129 -6.48841 35136 ft 449 kts 221°
2026-04-26 08:39 39.86312 -6.54031 35132 ft 449 kts 221°
2026-04-26 08:40 39.81496 -6.59206 35138 ft 449 kts 221°
2026-04-26 08:40 39.76680 -6.64369 35135 ft 449 kts 220°
2026-04-26 08:41 39.71867 -6.69519 35135 ft 448 kts 220°
2026-04-26 08:41 39.67053 -6.74654 35138 ft 448 kts 220°
2026-04-26 08:42 39.62273 -6.79741 35145 ft 447 kts 220°
2026-04-26 08:42 39.57437 -6.84889 35132 ft 447 kts 220°
2026-04-26 08:43 39.52665 -6.89953 35135 ft 446 kts 220°
2026-04-26 08:43 39.47867 -6.95045 35140 ft 446 kts 220°
2026-04-26 08:44 39.43066 -7.00114 35136 ft 445 kts 220°
2026-04-26 08:44 39.38267 -7.05168 35120 ft 444 kts 220°
2026-04-26 08:45 39.33477 -7.10210 35124 ft 444 kts 220°
2026-04-26 08:45 39.28691 -7.15248 35116 ft 443 kts 220°
2026-04-26 08:46 39.23908 -7.20269 35120 ft 443 kts 220°
2026-04-26 08:46 39.19051 -7.25166 35117 ft 444 kts 217°
2026-04-26 08:47 39.13993 -7.29723 35125 ft 443 kts 215°
2026-04-26 08:47 39.08923 -7.34157 35119 ft 443 kts 216°
2026-04-26 08:48 39.03825 -7.38713 35123 ft 443 kts 216°
2026-04-26 08:48 38.98826 -7.43254 35123 ft 443 kts 217°
2026-04-26 08:49 38.93789 -7.47810 35124 ft 443 kts 216°
2026-04-26 08:49 38.88746 -7.52345 35124 ft 442 kts 216°
2026-04-26 08:50 38.83709 -7.56862 35117 ft 442 kts 216°
2026-04-26 08:50 38.78672 -7.61373 35118 ft 441 kts 216°
2026-04-26 08:51 38.71118 -7.68132 35112 ft 441 kts 216°
2026-04-26 08:52 38.66080 -7.72620 35115 ft 441 kts 216°
2026-04-26 08:52 38.61044 -7.77110 35113 ft 441 kts 216°
2026-04-26 08:53 38.56047 -7.81557 35114 ft 441 kts 216°
2026-04-26 08:53 38.51011 -7.86025 35112 ft 440 kts 216°
2026-04-26 08:54 38.45980 -7.90485 35113 ft 440 kts 216°
2026-04-26 08:54 38.40949 -7.94935 35112 ft 440 kts 216°
2026-04-26 08:55 38.35912 -7.99376 35108 ft 440 kts 216°
2026-04-26 08:55 38.30884 -8.03806 35108 ft 440 kts 216°
2026-04-26 08:56 38.25891 -8.08206 35109 ft 439 kts 216°
2026-04-26 08:56 38.20860 -8.12627 35108 ft 439 kts 216°
2026-04-26 08:57 38.15832 -8.17036 35110 ft 439 kts 216°
2026-04-26 08:57 38.10799 -8.21441 35109 ft 439 kts 216°
2026-04-26 08:58 38.05775 -8.25842 35111 ft 439 kts 216°
2026-04-26 08:58 38.00744 -8.30230 35110 ft 439 kts 216°
2026-04-26 08:59 37.95713 -8.34609 35109 ft 438 kts 216°
2026-04-26 08:59 37.90686 -8.38980 35111 ft 438 kts 216°
2026-04-26 09:00 37.85654 -8.43348 35108 ft 438 kts 216°
2026-04-26 09:00 37.80623 -8.47709 35108 ft 438 kts 216°
2026-04-26 09:01 37.75600 -8.52063 35108 ft 438 kts 216°
2026-04-26 09:01 37.70567 -8.56409 35107 ft 438 kts 216°
2026-04-26 09:02 37.65573 -8.60714 35108 ft 438 kts 216°
2026-04-26 09:02 37.60545 -8.65040 35110 ft 437 kts 216°
2026-04-26 09:03 37.55511 -8.69362 35109 ft 437 kts 216°
2026-04-26 09:03 37.50487 -8.73681 35108 ft 437 kts 216°
2026-04-26 09:04 37.45462 -8.77987 35106 ft 437 kts 216°
2026-04-26 09:04 37.40436 -8.82278 35104 ft 436 kts 216°
2026-04-26 09:05 37.35416 -8.86569 35105 ft 436 kts 216°
2026-04-26 09:05 37.30394 -8.90850 35102 ft 436 kts 216°
2026-04-26 09:06 37.26154 -8.94452 35102 ft 436 kts 216°
2026-04-26 09:06 37.21133 -8.98715 35098 ft 436 kts 216°
2026-04-26 09:07 37.16117 -9.02973 35100 ft 435 kts 216°
2026-04-26 09:07 37.11140 -9.07195 35100 ft 435 kts 215°
2026-04-26 09:08 37.06123 -9.11435 35103 ft 435 kts 215°
2026-04-26 09:08 37.01111 -9.15666 35097 ft 434 kts 215°
2026-04-26 09:09 36.96094 -9.19893 35102 ft 434 kts 215°
2026-04-26 09:09 36.91088 -9.24109 35100 ft 434 kts 215°
2026-04-26 09:10 36.86075 -9.28320 35096 ft 434 kts 215°
2026-04-26 09:10 36.81059 -9.32522 35094 ft 434 kts 215°
2026-04-26 09:11 36.76892 -9.36015 35091 ft 434 kts 215°
2026-04-26 09:11 36.71066 -9.40899 35094 ft 434 kts 215°
2026-04-26 09:12 36.66045 -9.45091 35088 ft 434 kts 214°
2026-04-26 09:12 36.61841 -9.48592 35092 ft 434 kts 214°
2026-04-26 09:13 36.56811 -9.52768 35090 ft 434 kts 214°
2026-04-26 09:13 36.51783 -9.56941 35084 ft 435 kts 214°
2026-04-26 09:14 36.46759 -9.61122 35089 ft 435 kts 214°
2026-04-26 09:14 36.41767 -9.65272 35090 ft 435 kts 214°
2026-04-26 09:15 36.36734 -9.69426 35087 ft 434 kts 214°
2026-04-26 09:15 36.31697 -9.73576 35090 ft 434 kts 214°
2026-04-26 09:16 36.26661 -9.77725 35094 ft 434 kts 214°
2026-04-26 09:16 36.21628 -9.81870 35097 ft 434 kts 214°
2026-04-26 09:17 36.16600 -9.86011 35098 ft 434 kts 214°
2026-04-26 09:17 36.11575 -9.90143 35096 ft 434 kts 214°
2026-04-26 09:18 36.06549 -9.94265 35098 ft 433 kts 214°
2026-04-26 09:18 36.01522 -9.98367 35094 ft 433 kts 214°
2026-04-26 09:19 35.96531 -10.02441 35096 ft 433 kts 214°
2026-04-26 09:19 35.91650 -10.06784 35096 ft 432 kts 218°
2026-04-26 09:20 35.86899 -10.11331 35096 ft 432 kts 218°
2026-04-26 09:20 35.82139 -10.15853 35092 ft 432 kts 217°
2026-04-26 09:21 35.77344 -10.20302 35094 ft 431 kts 217°
2026-04-26 09:21 35.72542 -10.24716 35089 ft 431 kts 217°
2026-04-26 09:22 35.67747 -10.29140 35088 ft 430 kts 217°
2026-04-26 09:22 35.62958 -10.33562 35086 ft 430 kts 217°
2026-04-26 09:23 35.58173 -10.37972 35081 ft 430 kts 217°
2026-04-26 09:23 35.53388 -10.42371 35083 ft 429 kts 216°
2026-04-26 09:24 35.48639 -10.46733 35082 ft 429 kts 217°
2026-04-26 09:24 35.43862 -10.51113 35080 ft 429 kts 216°
2026-04-26 09:25 35.39076 -10.55483 35080 ft 429 kts 216°
2026-04-26 09:25 35.34289 -10.59849 35080 ft 429 kts 216°
2026-04-26 09:26 35.29501 -10.64212 35082 ft 429 kts 216°
2026-04-26 09:26 35.24707 -10.68570 35080 ft 429 kts 216°
2026-04-26 09:27 35.19917 -10.72930 35081 ft 429 kts 216°
2026-04-26 09:27 35.15156 -10.77255 35078 ft 429 kts 216°
2026-04-26 09:28 35.10363 -10.81599 35073 ft 429 kts 216°
2026-04-26 09:28 35.05571 -10.85949 35077 ft 429 kts 216°
2026-04-26 09:29 35.00770 -10.90291 35077 ft 429 kts 216°
2026-04-26 09:29 34.95967 -10.94620 35082 ft 429 kts 216°
2026-04-26 09:30 34.91169 -10.98947 35080 ft 429 kts 216°
2026-04-26 09:30 34.86369 -11.03270 35083 ft 429 kts 216°
2026-04-26 09:31 34.81569 -11.07585 35085 ft 429 kts 215°
2026-04-26 09:31 34.76768 -11.11890 35083 ft 429 kts 216°
2026-04-26 09:32 34.71970 -11.16186 35082 ft 428 kts 216°
2026-04-26 09:32 34.67175 -11.20479 35082 ft 428 kts 215°
2026-04-26 09:33 34.62415 -11.24734 35079 ft 427 kts 215°
2026-04-26 09:33 34.57636 -11.29025 35076 ft 427 kts 215°
2026-04-26 09:34 34.52860 -11.33309 35072 ft 427 kts 215°
2026-04-26 09:34 34.48081 -11.37577 35065 ft 427 kts 215°
2026-04-26 09:35 34.43308 -11.41843 35071 ft 426 kts 215°
2026-04-26 09:35 34.38540 -11.46116 35072 ft 427 kts 215°
2026-04-26 09:36 34.33761 -11.50382 35073 ft 427 kts 215°
2026-04-26 09:36 34.29011 -11.54611 35076 ft 427 kts 215°
2026-04-26 09:37 34.24227 -11.58863 35076 ft 427 kts 215°
2026-04-26 09:37 34.19446 -11.63114 35079 ft 427 kts 215°
2026-04-26 09:38 34.14660 -11.67362 35076 ft 427 kts 215°
2026-04-26 09:38 34.09868 -11.71591 35079 ft 426 kts 215°
2026-04-26 09:39 34.05088 -11.75819 35072 ft 426 kts 215°
2026-04-26 09:39 34.00303 -11.80044 35077 ft 426 kts 215°
2026-04-26 09:40 33.95519 -11.84265 35072 ft 426 kts 215°
2026-04-26 09:40 33.90734 -11.88480 35069 ft 426 kts 215°
2026-04-26 09:41 33.85980 -11.92655 35067 ft 426 kts 215°
2026-04-26 09:41 33.81191 -11.96850 35068 ft 426 kts 215°
2026-04-26 09:42 33.76404 -12.01048 35069 ft 426 kts 215°
2026-04-26 09:42 33.71618 -12.05239 35075 ft 426 kts 215°
2026-04-26 09:43 33.66827 -12.09437 35077 ft 426 kts 215°
2026-04-26 09:43 33.62031 -12.13624 35078 ft 426 kts 215°
2026-04-26 09:44 33.57264 -12.17774 35076 ft 426 kts 215°
2026-04-26 09:44 33.52463 -12.21947 35078 ft 426 kts 215°
2026-04-26 09:45 33.47676 -12.26111 35081 ft 425 kts 214°
2026-04-26 09:45 33.42890 -12.30272 35077 ft 425 kts 215°
2026-04-26 09:46 33.38106 -12.34419 35080 ft 424 kts 214°
2026-04-26 09:46 33.33321 -12.38556 35083 ft 424 kts 214°
2026-04-26 09:47 33.28537 -12.42685 35076 ft 424 kts 214°
2026-04-26 09:47 33.23762 -12.46819 35069 ft 424 kts 214°
2026-04-26 09:48 33.18988 -12.50938 35072 ft 423 kts 214°
2026-04-26 09:48 33.14206 -12.55047 35064 ft 423 kts 214°
2026-04-26 09:49 33.09428 -12.59147 35062 ft 423 kts 214°
2026-04-26 09:49 33.04683 -12.63228 35064 ft 423 kts 214°
2026-04-26 09:50 32.99912 -12.67332 35066 ft 423 kts 214°
2026-04-26 09:50 32.95124 -12.71424 35064 ft 423 kts 214°
2026-04-26 09:51 32.90334 -12.75508 35061 ft 424 kts 214°
2026-04-26 09:51 32.85545 -12.79596 35062 ft 424 kts 214°
2026-04-26 09:52 32.80749 -12.83672 35063 ft 424 kts 214°
2026-04-26 09:52 32.73575 -12.89745 35067 ft 424 kts 214°
2026-04-26 09:53 32.68772 -12.93809 35066 ft 424 kts 214°
2026-04-26 09:53 32.63969 -12.97866 35066 ft 423 kts 214°
2026-04-26 09:54 32.59173 -13.01917 35065 ft 423 kts 215°
2026-04-26 09:54 32.54369 -13.05961 35061 ft 424 kts 215°
2026-04-26 09:55 32.49567 -13.10013 35068 ft 424 kts 215°
2026-04-26 09:55 32.44766 -13.14053 35069 ft 423 kts 215°
2026-04-26 09:56 32.39957 -13.18082 35072 ft 423 kts 215°
2026-04-26 09:56 32.35183 -13.22080 35072 ft 423 kts 215°
2026-04-26 09:57 32.30376 -13.26098 35073 ft 423 kts 215°
2026-04-26 09:57 32.25570 -13.30108 35073 ft 423 kts 215°
2026-04-26 09:58 32.20763 -13.34114 35073 ft 423 kts 216°
2026-04-26 09:58 32.15959 -13.38120 35071 ft 423 kts 216°
2026-04-26 09:59 32.11969 -13.41449 35069 ft 423 kts 216°
2026-04-26 09:59 32.06355 -13.46124 35073 ft 423 kts 216°
2026-04-26 10:00 32.01547 -13.50113 35074 ft 422 kts 216°
2026-04-26 10:00 31.96738 -13.54094 35073 ft 422 kts 216°
2026-04-26 10:01 31.91964 -13.58044 35073 ft 422 kts 216°
2026-04-26 10:01 31.87158 -13.62021 35071 ft 422 kts 216°
2026-04-26 10:02 31.82355 -13.65990 35075 ft 422 kts 216°
2026-04-26 10:02 31.77549 -13.69951 35076 ft 422 kts 216°
2026-04-26 10:03 31.72745 -13.73914 35077 ft 422 kts 216°
2026-04-26 10:03 31.67943 -13.77869 35068 ft 421 kts 216°
2026-04-26 10:04 31.63144 -13.81815 35070 ft 421 kts 216°
2026-04-26 10:04 31.58336 -13.85756 35065 ft 422 kts 216°
2026-04-26 10:05 31.53548 -13.89658 35063 ft 422 kts 216°
2026-04-26 10:05 31.48712 -13.93622 35064 ft 421 kts 216°
2026-04-26 10:06 31.43942 -13.97529 35064 ft 421 kts 216°
2026-04-26 10:06 31.39132 -14.01458 35057 ft 421 kts 216°
2026-04-26 10:07 31.34322 -14.05380 35061 ft 421 kts 216°
2026-04-26 10:07 31.29507 -14.09297 35062 ft 422 kts 216°
2026-04-26 10:08 31.24696 -14.13227 35061 ft 422 kts 216°
2026-04-26 10:08 31.19895 -14.17164 35063 ft 422 kts 216°
2026-04-26 10:09 31.15903 -14.20434 35064 ft 422 kts 216°
2026-04-26 10:09 31.10287 -14.25024 35065 ft 421 kts 216°
2026-04-26 10:10 31.05482 -14.28946 35067 ft 421 kts 216°
2026-04-26 10:10 31.00704 -14.32826 35067 ft 421 kts 216°
2026-04-26 10:11 30.95895 -14.36731 35066 ft 421 kts 216°
2026-04-26 10:11 30.91088 -14.40642 35067 ft 421 kts 216°
2026-04-26 10:12 30.86277 -14.44542 35069 ft 421 kts 216°
2026-04-26 10:12 30.81460 -14.48425 35070 ft 421 kts 216°
2026-04-26 10:13 30.77457 -14.51649 35075 ft 421 kts 216°
2026-04-26 10:13 30.72644 -14.55524 35073 ft 421 kts 216°
2026-04-26 10:14 30.67830 -14.59391 35074 ft 421 kts 216°
2026-04-26 10:14 30.63013 -14.63254 35069 ft 421 kts 216°
2026-04-26 10:15 30.58195 -14.67118 35068 ft 421 kts 216°
2026-04-26 10:15 30.53374 -14.70974 35069 ft 421 kts 216°
2026-04-26 10:16 30.48554 -14.74829 35071 ft 421 kts 216°
2026-04-26 10:16 30.43759 -14.78660 35066 ft 421 kts 216°
2026-04-26 10:17 30.38931 -14.82506 35069 ft 422 kts 216°
2026-04-26 10:17 30.34096 -14.86358 35072 ft 422 kts 216°
2026-04-26 10:18 30.29261 -14.90207 35073 ft 422 kts 216°
2026-04-26 10:18 30.24428 -14.94054 35075 ft 422 kts 216°
2026-04-26 10:19 30.19588 -14.97893 35076 ft 422 kts 216°
2026-04-26 10:19 30.14748 -15.01729 35074 ft 422 kts 216°
2026-04-26 10:20 30.09911 -15.05562 35076 ft 422 kts 216°
2026-04-26 10:20 30.05105 -15.09367 35081 ft 421 kts 216°
2026-04-26 10:21 30.00268 -15.13190 35081 ft 421 kts 216°
2026-04-26 10:21 29.95427 -15.17002 35080 ft 421 kts 216°
2026-04-26 10:22 29.90589 -15.20816 35082 ft 421 kts 216°
2026-04-26 10:22 29.85756 -15.24632 35088 ft 421 kts 216°
2026-04-26 10:23 29.80917 -15.28433 35085 ft 421 kts 216°
2026-04-26 10:23 29.76072 -15.32230 35086 ft 421 kts 216°
2026-04-26 10:24 29.71266 -15.35999 35074 ft 421 kts 216°
2026-04-26 10:24 29.68846 -15.37901 34842 ft 421 kts 216°
2026-04-26 10:24 29.66425 -15.39798 34604 ft 421 kts 216°
2026-04-26 10:25 29.64006 -15.41686 34329 ft 420 kts 216°
2026-04-26 10:25 29.61595 -15.43565 33765 ft 418 kts 216°
2026-04-26 10:25 29.59198 -15.45439 33229 ft 415 kts 216°
2026-04-26 10:25 29.56823 -15.47297 32715 ft 412 kts 216°
2026-04-26 10:26 29.54459 -15.49148 32193 ft 409 kts 216°
2026-04-26 10:26 29.52116 -15.50978 31693 ft 406 kts 216°
2026-04-26 10:26 29.49783 -15.52798 31189 ft 404 kts 216°
2026-04-26 10:26 29.47466 -15.54606 30691 ft 402 kts 216°
2026-04-26 10:27 29.45159 -15.56407 30199 ft 400 kts 216°
2026-04-26 10:27 29.42868 -15.58197 29645 ft 397 kts 216°
2026-04-26 10:27 29.40593 -15.59968 29176 ft 393 kts 216°
2026-04-26 10:27 29.38340 -15.61714 28714 ft 389 kts 216°
2026-04-26 10:28 29.36137 -15.63420 28224 ft 385 kts 216°
2026-04-26 10:28 29.33929 -15.65136 27732 ft 382 kts 216°
2026-04-26 10:28 29.31734 -15.66845 27240 ft 380 kts 216°
2026-04-26 10:28 29.29558 -15.68537 26757 ft 377 kts 216°
2026-04-26 10:29 29.27397 -15.70218 26296 ft 374 kts 216°
2026-04-26 10:29 29.25250 -15.71884 25843 ft 371 kts 216°
2026-04-26 10:29 29.23115 -15.73535 25386 ft 369 kts 216°
2026-04-26 10:29 29.20996 -15.75171 24953 ft 366 kts 216°
2026-04-26 10:30 29.18893 -15.76797 24531 ft 364 kts 216°
2026-04-26 10:30 29.16801 -15.78416 24083 ft 362 kts 216°
2026-04-26 10:30 29.14721 -15.80028 23633 ft 361 kts 216°
2026-04-26 10:30 29.12647 -15.81634 23152 ft 358 kts 216°
2026-04-26 10:31 29.10589 -15.83222 22707 ft 355 kts 216°
2026-04-26 10:31 29.08550 -15.84794 22270 ft 352 kts 216°
2026-04-26 10:31 29.06529 -15.86355 21834 ft 350 kts 216°
2026-04-26 10:31 29.04523 -15.87907 21399 ft 347 kts 216°
2026-04-26 10:32 29.02528 -15.89448 20960 ft 345 kts 216°
2026-04-26 10:32 29.00538 -15.90978 20520 ft 344 kts 216°
2026-04-26 10:32 28.98558 -15.92500 20082 ft 342 kts 216°
2026-04-26 10:32 28.96585 -15.94017 19641 ft 341 kts 216°
2026-04-26 10:33 28.94617 -15.95530 19202 ft 340 kts 216°
2026-04-26 10:33 28.92684 -15.97015 18782 ft 339 kts 216°
2026-04-26 10:33 28.90727 -15.98521 18357 ft 339 kts 216°
2026-04-26 10:33 28.88772 -16.00026 17865 ft 338 kts 216°
2026-04-26 10:34 28.86830 -16.01518 17459 ft 336 kts 216°
2026-04-26 10:34 28.84898 -16.03002 17038 ft 334 kts 216°
2026-04-26 10:34 28.82976 -16.04480 16629 ft 332 kts 216°
2026-04-26 10:34 28.81066 -16.05948 16221 ft 331 kts 216°
2026-04-26 10:35 28.79162 -16.07410 15812 ft 329 kts 216°
2026-04-26 10:35 28.77264 -16.08862 15401 ft 328 kts 216°
2026-04-26 10:35 28.75369 -16.10311 14994 ft 327 kts 216°
2026-04-26 10:35 28.73483 -16.11756 14600 ft 327 kts 216°
2026-04-26 10:36 28.71598 -16.13200 14201 ft 326 kts 216°
2026-04-26 10:36 28.69713 -16.14642 13767 ft 326 kts 216°
2026-04-26 10:36 28.67833 -16.16081 13350 ft 325 kts 216°
2026-04-26 10:36 28.65958 -16.17513 12939 ft 324 kts 216°
2026-04-26 10:37 28.64096 -16.18937 12534 ft 322 kts 216°
2026-04-26 10:37 28.62240 -16.20356 12123 ft 321 kts 216°
2026-04-26 10:37 28.60392 -16.21767 11716 ft 320 kts 216°
2026-04-26 10:37 28.58425 -16.22934 11302 ft 321 kts 199°
2026-04-26 10:38 28.56217 -16.23250 10889 ft 323 kts 176°
2026-04-26 10:38 28.54049 -16.22619 10464 ft 324 kts 154°
2026-04-26 10:38 28.52278 -16.21139 10232 ft 317 kts 131°
2026-04-26 10:38 28.51116 -16.19130 10096 ft 292 kts 111°
2026-04-26 10:39 28.50401 -16.17040 9713 ft 279 kts 109°
2026-04-26 10:39 28.49722 -16.15026 9377 ft 265 kts 109°
2026-04-26 10:39 28.49070 -16.13088 8749 ft 261 kts 109°
2026-04-26 10:39 28.48420 -16.11177 8120 ft 257 kts 112°
2026-04-26 10:40 28.47381 -16.09547 7486 ft 257 kts 138°
2026-04-26 10:40 28.45826 -16.08582 6846 ft 256 kts 165°
2026-04-26 10:40 28.44078 -16.08484 6509 ft 253 kts 191°
2026-04-26 10:40 28.42501 -16.09167 6329 ft 235 kts 216°
2026-04-26 10:41 28.41431 -16.10493 6227 ft 226 kts 246°
2026-04-26 10:41 28.41089 -16.12167 5927 ft 213 kts 276°
2026-04-26 10:41 28.41458 -16.13730 5608 ft 200 kts 294°
2026-04-26 10:41 28.41946 -16.15177 5289 ft 194 kts 294°
2026-04-26 10:42 28.42418 -16.16585 5020 ft 188 kts 294°
2026-04-26 10:42 28.42866 -16.17928 4784 ft 176 kts 295°
2026-04-26 10:42 28.43289 -16.19197 4536 ft 169 kts 294°
2026-04-26 10:42 28.43703 -16.20437 4303 ft 168 kts 294°
2026-04-26 10:43 28.44111 -16.21660 4089 ft 167 kts 295°
2026-04-26 10:43 28.44523 -16.22894 3864 ft 167 kts 294°
2026-04-26 10:43 28.44932 -16.24123 3645 ft 165 kts 294°
2026-04-26 10:43 28.45337 -16.25342 3428 ft 164 kts 295°
2026-04-26 10:44 28.45734 -16.26536 3223 ft 156 kts 294°
2026-04-26 10:44 28.46107 -16.27659 3003 ft 149 kts 294°
2026-04-26 10:44 28.46466 -16.28739 2797 ft 145 kts 294°
2026-04-26 10:44 28.46817 -16.29792 2602 ft 140 kts 294°
2026-04-26 10:45 28.47162 -16.30830 2412 ft 140 kts 292°
2026-04-26 10:45 28.47500 -16.31864 2209 ft 139 kts 292°
2026-04-26 10:45 28.47841 -16.32885 2035 ft 137 kts 292°
2026-04-26 10:45 28.48134 -16.33754 2044 ft 89 kts 291°
2026-04-26 10:46 28.48289 -16.34219 2046 ft 41 kts 291°
2026-04-26 10:46 28.48379 -16.34486 2050 ft 35 kts 291°
2026-04-26 10:46 28.48460 -16.34734 2053 ft 32 kts 290°
2026-04-26 10:46 28.48538 -16.34964 2059 ft 30 kts 291°
2026-04-26 10:47 28.48615 -16.35174 2062 ft 26 kts 302°
2026-04-26 10:47 28.48698 -16.35305 2065 ft 17 kts 309°
2026-04-26 10:47 28.48749 -16.35264 2064 ft 13 kts 104°
2026-04-26 10:47 28.48718 -16.35165 2062 ft 13 kts 110°
2026-04-26 10:48 28.48685 -16.35067 2060 ft 13 kts 110°
2026-04-26 10:48 28.48655 -16.34969 2059 ft 12 kts 98°
2026-04-26 10:48 28.48692 -16.34889 2057 ft 12 kts 59°
2026-04-26 10:48 28.48721 -16.34835 2056 ft 4 kts 58°
2026-04-26 10:49 28.48723 -16.34832 2056 ft 0 kts 58°